ON4CCM-13 Weather Reports


time (UTC)temp
F
wind
direction
speed
knots
gust
knots
rain 1hr
in
rain 24hr
in
rain mn
in
humidity
%
barometer
mb
20260507070050 52 344 0.9 2.6 0.00 0.00 0.00 66 1018.1
20260507065047 51 56 0.0 2.6 0.00 0.00 0.00 67 1018.2
20260507062035 50 19 0.9 3.5 0.00 0.01 0.00 72 1017.9
20260507061031 50 327 0.9 2.6 0.00 0.01 0.00 75 1017.8
20260507060028 49 331 0.9 2.6 0.00 0.01 0.00 75 1017.7
20260507055024 49 56 0.9 3.5 0.00 0.01 0.00 76 1017.6
20260507054021 49 70 0.9 2.6 0.00 0.01 0.00 78 1017.6
20260507053016 49 293 0.0 1.7 0.00 0.01 0.00 79 1017.5
20260507052134 48 23 0.0 1.7 0.00 0.01 0.00 80 1017.5
20260507051109 48 14 0.9 1.7 0.00 0.01 0.00 81 1017.4
20260507050126 48 0.0 1.7 0.00 0.01 0.00 82 1017.2
20260507045104 48 0.0 1.7 0.00 0.01 0.00 82 1017.1
20260507044059 48 0.0 1.7 0.00 0.01 0.00 82 1017.0
20260507043114 48 315 0.0 2.6 0.00 0.01 0.00 83 1017.0
20260507042050 48 0.0 1.7 0.00 0.01 0.00 83 1016.9
20260507041106 48 0.0 0.9 0.00 0.01 0.00 83 1016.7
20260507035038 48 315 0.0 1.7 0.00 0.01 0.00 82 1016.5
20260507034055 48 0.0 0.0 0.00 0.01 0.00 82 1016.5
20260507033031 48 0.0 0.0 0.00 0.01 0.00 81 1016.5
20260507032027 48 0.0 0.0 0.00 0.01 0.00 81 1016.5
20260507031024 48 0.0 0.0 0.00 0.01 0.00 80 1016.5
20260507030020 48 0.0 0.0 0.00 0.01 0.00 80 1016.5
20260507025016 48 0.0 0.0 0.00 0.01 0.00 79 1016.3
20260507024113 48 0.0 0.0 0.00 0.01 0.00 79 1016.2
20260507023110 48 0.0 0.0 0.00 0.01 0.00 78 1016.1
20260507022106 48 0.0 0.0 0.00 0.01 0.00 78 1016.1
20260507021102 48 0.0 0.0 0.00 0.01 0.00 77 1016.0
20260507020058 48 0.0 0.0 0.00 0.01 0.00 77 1016.0
20260507015055 48 0.0 0.0 0.00 0.01 0.00 77 1015.8
20260507014051 48 0.0 0.0 0.00 0.01 0.00 77 1015.8
20260507013047 49 0.0 0.0 0.00 0.01 0.00 76 1015.8
20260507012044 49 0.0 0.0 0.00 0.01 0.00 76 1015.8
20260507011040 49 0.0 0.0 0.00 0.01 0.00 75 1015.7
20260507010037 49 0.0 0.0 0.00 0.01 0.00 75 1015.7
20260507005032 49 0.0 0.0 0.00 0.01 0.00 74 1015.7
20260507004028 49 0.0 0.0 0.00 0.01 0.00 74 1015.6
20260507003025 49 0.0 0.0 0.00 0.01 0.00 74 1015.6
20260507002020 49 0.0 0.0 0.00 0.01 0.00 73 1015.5
20260507001036 49 0.0 0.0 0.00 0.01 0.00 73 1015.5
20260507000113 49 0.0 0.0 0.00 0.01 0.00 73 1015.5
20260506235109 49 315 0.0 1.7 0.00 0.01 0.00 72 1015.4
20260506234106 49 0.0 0.0 0.00 0.01 0.00 72 1015.5
20260506233122 49 0.0 0.0 0.00 0.01 0.00 72 1015.4
20260506232054 49 0.0 0.0 0.00 0.01 0.00 71 1015.3
20260506231050 49 0.0 0.0 0.00 0.01 0.00 70 1015.3
20260506230107 49 0.0 0.0 0.00 0.01 0.00 70 1015.2
20260506225043 49 0.0 0.0 0.00 0.01 0.00 70 1015.1
20260506224039 49 0.0 0.0 0.00 0.01 0.00 69 1015.0
20260506223056 49 0.0 0.0 0.00 0.01 0.00 68 1015.1
20260506222032 50 0.0 0.0 0.00 0.01 0.00 68 1015.3
20260506221050 50 0.0 0.0 0.00 0.01 0.00 68 1015.1
20260506220026 50 0.0 0.0 0.00 0.01 0.00 67 1015.1
20260506215021 50 0.0 0.0 0.00 0.01 0.01 67 1015.0
20260506214040 51 0.0 0.9 0.00 0.01 0.01 66 1015.0
20260506213113 51 0.0 1.7 0.00 0.01 0.01 65 1015.0
20260506212131 51 293 0.0 1.7 0.00 0.01 0.01 64 1014.9
20260506211106 51 315 0.0 1.7 0.00 0.01 0.01 63 1014.7
20260506210106 51 0.0 0.0 0.00 0.01 0.01 62 1014.6
20260506205058 51 0.0 0.0 0.00 0.01 0.01 62 1014.6
20260506204056 51 0.0 1.7 0.00 0.01 0.01 61 1014.5
20260506203051 51 0 0.0 1.7 0.00 0.01 0.01 61 1014.5
20260506202107 51 0.0 0.0 0.00 0.01 0.01 60 1014.5
20260506201105 52 348 0.0 1.7 0.00 0.01 0.01 60 1014.5
20260506200039 52 0.0 1.7 0.00 0.01 0.01 59 1014.4
20260506195036 52 23 0.0 1.7 0.00 0.01 0.01 59 1014.4
20260506194034 52 0.0 0.9 0.00 0.01 0.01 58 1014.2
20260506193028 52 0.0 0.9 0.00 0.01 0.01 58 1014.1
20260506192025 52 0.0 0.0 0.00 0.01 0.01 57 1014.0
20260506191021 52 90 0.0 3.5 0.00 0.01 0.01 55 1013.8
20260506190114 52 90 0.0 1.7 0.00 0.01 0.01 54 1013.8
20260506185212 52 180 0.0 2.6 0.00 0.01 0.01 53 1013.7
20260506184107 53 81 0.9 2.6 0.00 0.01 0.01 54 1013.6
20260506183103 53 71 0.9 4.3 0.00 0.01 0.01 54 1013.5
20260506182101 53 68 0.9 2.6 0.00 0.01 0.01 55 1013.4
20260506181056 53 323 0.9 3.5 0.00 0.01 0.01 55 1013.2
20260506180052 53 292 0.9 3.5 0.00 0.01 0.01 55 1013.1
20260506175048 53 313 0.0 2.6 0.00 0.01 0.01 54 1013.0
20260506174045 53 78 0.9 4.3 0.00 0.01 0.01 53 1013.0
20260506173044 53 82 1.7 7.0 0.00 0.01 0.01 52 1012.9
20260506172059 54 19 1.7 6.1 0.00 0.01 0.01 50 1012.8
20260506171035 55 225 3.5 7.0 0.00 0.01 0.01 45 1012.6
20260506170031 55 248 2.6 8.7 0.00 0.01 0.01 45 1012.5
20260506165028 56 354 0.9 5.2 0.00 0.01 0.01 44 1012.4
20260506164024 56 14 1.7 6.1 0.00 0.01 0.01 42 1012.2
20260506163020 56 111 0.9 3.5 0.00 0.01 0.01 41 1012.1
20260506162015 57 82 2.6 6.1 0.00 0.01 0.01 39 1012.0
20260506161111 58 118 1.7 3.5 0.00 0.01 0.01 38 1012.0
20260506160107 58 357 1.7 7.0 0.00 0.01 0.01 37 1012.0
20260506155103 59 29 2.6 7.8 0.00 0.01 0.01 35 1012.0
20260506154100 59 225 0.9 4.3 0.00 0.01 0.01 36 1012.0
20260506153056 59 334 1.7 9.6 0.00 0.01 0.01 33 1012.0
20260506152052 60 333 1.7 7.8 0.00 0.01 0.01 32 1011.9
20260506151048 61 195 3.5 7.0 0.00 0.01 0.01 32 1011.7
20260506145037 60 84 3.5 7.0 0.00 0.01 0.01 34 1011.6
20260506144035 60 331 1.7 6.1 0.00 0.01 0.01 36 1011.7
20260506143051 60 326 1.7 7.0 0.00 0.01 0.01 37 1011.8
20260506142028 61 70 3.5 9.6 0.00 0.01 0.01 35 1011.7
20260506141022 61 75 1.7 8.7 0.00 0.01 0.01 37 1011.7
20260506140019 61 33 1.7 4.3 0.00 0.01 0.01 38 1011.6
20260506135035 60 64 2.6 7.8 0.00 0.01 0.01 37 1011.6
20260506134221 60 75 2.6 7.0 0.00 0.01 0.01 38 1011.6
20260506133108 60 82 3.5 7.0 0.00 0.01 0.01 36 1011.5
20260506132104 61 86 1.7 6.1 0.00 0.01 0.01 34 1011.4
20260506131100 61 79 1.7 5.2 0.00 0.01 0.01 33 1011.4
20260506130057 61 94 1.7 7.0 0.00 0.01 0.01 32 1011.3
20260506125054 61 84 2.6 7.0 0.00 0.01 0.01 33 1011.3
20260506124051 61 115 1.7 7.0 0.00 0.01 0.01 35 1011.2
20260506123106 61 43 3.5 8.7 0.00 0.01 0.01 35 1011.2
20260506122044 61 45 2.6 7.0 0.00 0.01 0.01 38 1011.2
20260506121040 61 60 1.7 5.2 0.00 0.01 0.01 39 1011.1
20260506120035 61 101 1.7 7.0 0.00 0.01 0.01 40 1011.1
20260506115032 60 74 2.6 7.0 0.00 0.01 0.01 41 1011.0
20260506113023 60 293 1.7 7.8 0.00 0.01 0.01 46 1011.1
20260506112020 60 113 1.7 6.1 0.00 0.01 0.01 49 1011.2
20260506111016 59 321 0.9 4.3 0.00 0.01 0.01 50 1011.2
20260506110113 59 49 1.7 5.2 0.00 0.01 0.01 51 1011.3
20260506105107 59 21 1.7 7.0 0.00 0.01 0.01 52 1011.3
20260506104124 57 352 1.7 7.8 0.00 0.01 0.01 54 1011.1
20260506103058 58 57 1.7 7.8 0.00 0.01 0.01 57 1011.1
20260506102056 58 146 0.9 2.6 0.00 0.01 0.01 62 1011.1
20260506101051 58 114 0.9 2.6 0.00 0.01 0.01 62 1011.0
20260506100047 58 324 0.9 4.3 0.00 0.01 0.01 62 1011.0
20260506095043 58 345 1.7 7.0 0.00 0.01 0.01 65 1011.1
20260506094040 58 91 0.9 4.3 0.00 0.01 0.01 68 1011.0
20260506093036 57 9 0.9 4.3 0.00 0.01 0.01 70 1011.0
20260506092032 56 343 2.6 6.1 0.00 0.01 0.01 70 1010.9
20260506091028 56 316 0.0 2.6 0.00 0.01 0.01 74 1010.8
20260506090025 56 326 0.9 5.2 0.00 0.01 0.01 74 1010.9
20260506085021 56 320 0.9 3.5 0.00 0.01 0.01 78 1010.8
20260506084037 55 341 0.9 3.5 0.00 0.01 0.01 83 1010.8
20260506083113 54 304 0.0 2.6 0.00 0.01 0.01 88 1010.7
20260506082110 53 337 1.7 3.5 0.00 0.01 0.01 92 1010.7
20260506081106 52 342 0.9 3.5 0.00 0.01 0.01 94 1010.8
20260506080105 52 360 0.9 4.3 0.00 0.01 0.01 96 1010.8
20260506073051 50 318 1.7 3.5 0.01 0.01 0.01 99 1010.7
20260506072107 50 298 0.0 1.7 0.01 0.01 0.01 99 1010.8
20260506071043 50 108 0.0 1.7 0.01 0.01 0.01 99 1010.7